Location: Domont
(49.0278°N, 2.3264°E)
Time: 02:17:44
(UTC+00:00)

Orbus 7S? - Pass Details

Date: 06 June 2022
Orbit: 340 x 6374 km, 56.9° (Epoch: 04 July)

Event Time Altitude Azimuth Distance (km) Brightness Sun altitude
Rises 02:33:35 0° 280° (W) 6,247 8.4 -9.5°
Reaches altitude 10° 02:36:39 10° 283° (WNW) 5,760 8.2 -9.2°
Maximum altitude 02:58:40 73° 11° (N) 5,346 8.4 -6.9°
Drops below altitude 10° 03:41:17 10° 101° (E) 9,712 10.3 -1.7°
Sets 03:48:39 0° 104° (ESE) 10,366 10.4 -0.8°
